Time,TemperatureF,DewpointF,PressureIn,WindDirection,WindDirectionDegrees,WindSpeedMPH,WindSpeedGustMPH,Humidity,HourlyPrecipIn,Conditions,Clouds,dailyrainin,SoftwareType,DateUTC
2013-10-14 00:08:00,77.9,75.1,29.91,WSW,247,0.0,-999.0,91,-99.99,,,0.00,Acu-Link.com,2013-10-14 04:08:00,
2013-10-14 00:23:00,78.4,75.6,29.90,East,90,0.0,-999.0,91,-99.99,,,0.00,Acu-Link.com,2013-10-14 04:23:00,
2013-10-14 00:39:00,77.5,75.0,29.90,WSW,247,1.1,-999.0,92,-99.99,,,0.00,Acu-Link.com,2013-10-14 04:39:00,
2013-10-14 00:54:00,77.2,75.0,29.90,West,270,0.0,-999.0,93,-99.99,,,0.00,Acu-Link.com,2013-10-14 04:54:00,
2013-10-14 01:09:00,77.0,74.8,29.89,NW,315,2.2,-999.0,93,-99.99,,,0.00,Acu-Link.com,2013-10-14 05:09:00,
2013-10-14 01:25:00,77.2,75.0,29.89,West,270,1.6,-999.0,93,-99.99,,,0.00,Acu-Link.com,2013-10-14 05:25:00,
2013-10-14 01:40:00,77.0,75.1,29.88,ESE,112,2.2,-999.0,94,-99.99,,,0.00,Acu-Link.com,2013-10-14 05:40:00,
2013-10-14 01:56:00,77.2,75.3,29.88,SW,225,2.2,-999.0,94,-99.99,,,0.00,Acu-Link.com,2013-10-14 05:56:00,
2013-10-14 02:11:00,77.2,75.3,29.87,SE,135,2.2,-999.0,94,-99.99,,,0.00,Acu-Link.com,2013-10-14 06:11:00,
2013-10-14 02:27:00,77.2,75.0,29.87,South,180,2.2,-999.0,93,-99.99,,,0.00,Acu-Link.com,2013-10-14 06:27:00,
2013-10-14 02:42:00,77.2,75.0,29.86,ESE,112,1.6,-999.0,93,-99.99,,,0.00,Acu-Link.com,2013-10-14 06:42:00,
2013-10-14 02:57:00,77.2,75.0,29.87,East,90,0.0,-999.0,93,-99.99,,,0.00,Acu-Link.com,2013-10-14 06:57:00,
2013-10-14 03:14:00,77.2,75.0,29.86,ESE,112,2.2,-999.0,93,-99.99,,,0.00,Acu-Link.com,2013-10-14 07:14:00,
2013-10-14 03:29:00,77.0,75.1,29.86,West,270,0.0,-999.0,94,-99.99,,,0.00,Acu-Link.com,2013-10-14 07:29:00,
2013-10-14 03:45:00,76.8,75.0,29.86,South,180,1.6,-999.0,94,-99.99,,,0.00,Acu-Link.com,2013-10-14 07:45:00,
2013-10-14 04:00:00,76.8,75.0,29.86,ESE,112,1.1,-999.0,94,-99.99,,,0.00,Acu-Link.com,2013-10-14 08:00:00,
2013-10-14 04:15:00,76.6,74.8,29.85,ESE,112,2.2,-999.0,94,-99.99,,,0.00,Acu-Link.com,2013-10-14 08:15:00,
2013-10-14 04:31:00,76.5,74.6,29.85,ESE,112,0.0,-999.0,94,-99.99,,,0.00,Acu-Link.com,2013-10-14 08:31:00,
2013-10-14 04:46:00,76.5,74.9,29.85,ESE,112,0.0,-999.0,95,-99.99,,,0.00,Acu-Link.com,2013-10-14 08:46:00,
2013-10-14 05:02:00,76.5,74.9,29.85,ESE,112,1.6,-999.0,95,-99.99,,,0.00,Acu-Link.com,2013-10-14 09:02:00,
2013-10-14 05:17:00,76.5,74.9,29.85,NNE,22,2.2,-999.0,95,-99.99,,,0.00,Acu-Link.com,2013-10-14 09:17:00,
2013-10-14 05:32:00,76.5,74.9,29.84,East,90,2.2,-999.0,95,-99.99,,,0.00,Acu-Link.com,2013-10-14 09:32:00,
2013-10-14 05:47:00,76.5,75.2,29.85,South,180,0.0,-999.0,96,-99.99,,,0.00,Acu-Link.com,2013-10-14 09:47:00,
2013-10-14 06:02:00,76.6,75.4,29.86,SSW,202,2.2,-999.0,96,-99.99,,,0.00,Acu-Link.com,2013-10-14 10:02:00,
2013-10-14 06:17:00,76.5,74.9,29.86,South,180,1.6,-999.0,95,-99.99,,,0.00,Acu-Link.com,2013-10-14 10:17:00,
2013-10-14 06:33:00,76.5,74.9,29.87,SSW,202,0.0,-999.0,95,-99.99,,,0.00,Acu-Link.com,2013-10-14 10:33:00,
2013-10-14 06:48:00,76.8,75.3,29.87,SSE,157,1.6,-999.0,95,-99.99,,,0.00,Acu-Link.com,2013-10-14 10:48:00,
2013-10-14 07:03:00,78.6,76.1,29.87,WSW,247,2.7,-999.0,92,-99.99,,,0.00,Acu-Link.com,2013-10-14 11:03:00,
2013-10-14 07:18:00,80.1,76.5,29.88,SE,135,1.6,-999.0,89,-99.99,,,0.00,Acu-Link.com,2013-10-14 11:18:00,
2013-10-14 07:33:00,81.5,76.9,29.88,ESE,112,2.2,-999.0,86,-99.99,,,0.00,Acu-Link.com,2013-10-14 11:33:00,
2013-10-14 07:49:00,81.9,77.2,29.88,South,180,2.2,-999.0,86,-99.99,,,0.00,Acu-Link.com,2013-10-14 11:49:00,
2013-10-14 08:04:00,82.8,77.4,29.89,SSE,157,2.7,-999.0,84,-99.99,,,0.00,Acu-Link.com,2013-10-14 12:04:00,
2013-10-14 08:19:00,83.3,77.2,29.89,WSW,247,2.2,-999.0,82,-99.99,,,0.00,Acu-Link.com,2013-10-14 12:19:00,
2013-10-14 08:34:00,84.6,77.7,29.89,South,180,2.7,-999.0,80,-99.99,,,0.00,Acu-Link.com,2013-10-14 12:34:00,
2013-10-14 08:50:00,85.3,77.2,29.89,SSE,157,5.1,-999.0,77,-99.99,,,0.00,Acu-Link.com,2013-10-14 12:50:00,
2013-10-14 09:05:00,86.0,76.7,29.89,ESE,112,11.0,-999.0,74,-99.99,,,0.00,Acu-Link.com,2013-10-14 13:05:00,
2013-10-14 09:20:00,86.7,77.0,29.89,South,180,7.8,-999.0,73,-99.99,,,0.00,Acu-Link.com,2013-10-14 13:20:00,
2013-10-14 09:35:00,87.1,76.5,29.89,SE,135,8.3,-999.0,71,-99.99,,,0.00,Acu-Link.com,2013-10-14 13:35:00,
2013-10-14 09:50:00,87.3,76.7,29.89,North,0,5.8,-999.0,71,-99.99,,,0.00,Acu-Link.com,2013-10-14 13:50:00,
2013-10-14 10:06:00,88.7,77.6,29.89,ESE,112,8.3,-999.0,70,-99.99,,,0.00,Acu-Link.com,2013-10-14 14:06:00,
2013-10-14 10:21:00,89.2,76.4,29.89,SE,135,6.3,-999.0,66,-99.99,,,0.00,Acu-Link.com,2013-10-14 14:21:00,
2013-10-14 10:36:00,88.9,75.1,29.89,East,90,4.7,-999.0,64,-99.99,,,0.00,Acu-Link.com,2013-10-14 14:36:00,
2013-10-14 10:51:00,90.3,76.0,29.88,ESE,112,5.8,-999.0,63,-99.99,,,0.00,Acu-Link.com,2013-10-14 14:51:00,
2013-10-14 11:06:00,90.3,76.0,29.88,ESE,112,5.8,-999.0,63,-99.99,,,0.00,Acu-Link.com,2013-10-14 15:06:00,
2013-10-14 11:22:00,90.3,76.0,29.88,ESE,112,5.8,-999.0,63,-99.99,,,0.00,Acu-Link.com,2013-10-14 15:22:00,
2013-10-14 11:37:00,90.3,76.0,29.88,ESE,112,5.8,-999.0,63,-99.99,,,0.00,Acu-Link.com,2013-10-14 15:37:00,
2013-10-14 11:52:00,90.3,76.0,29.88,ESE,112,5.8,-999.0,63,-99.99,,,0.00,Acu-Link.com,2013-10-14 15:52:00,
2013-10-14 12:07:00,90.3,76.0,29.88,ESE,112,5.8,-999.0,63,-99.99,,,0.00,Acu-Link.com,2013-10-14 16:07:00,
2013-10-14 12:22:00,90.3,76.0,29.88,ESE,112,5.8,-999.0,63,-99.99,,,0.00,Acu-Link.com,2013-10-14 16:22:00,
2013-10-14 12:38:00,90.3,76.0,29.88,ESE,112,5.8,-999.0,63,-99.99,,,0.00,Acu-Link.com,2013-10-14 16:38:00,
2013-10-14 12:53:00,90.3,76.0,29.88,ESE,112,5.8,-999.0,63,-99.99,,,0.00,Acu-Link.com,2013-10-14 16:53:00,
2013-10-14 13:08:00,90.3,76.0,29.88,ESE,112,5.8,-999.0,63,-99.99,,,0.00,Acu-Link.com,2013-10-14 17:08:00,
2013-10-14 13:23:00,90.3,76.0,29.88,ESE,112,5.8,-999.0,63,-99.99,,,0.00,Acu-Link.com,2013-10-14 17:23:00,
2013-10-14 13:39:00,90.3,76.0,29.88,ESE,112,5.8,-999.0,63,-99.99,,,0.00,Acu-Link.com,2013-10-14 17:39:00,
2013-10-14 13:54:00,90.3,76.0,29.88,ESE,112,5.8,-999.0,63,-99.99,,,0.00,Acu-Link.com,2013-10-14 17:54:00,
2013-10-14 14:09:00,90.3,76.0,29.88,ESE,112,5.8,-999.0,63,-99.99,,,0.00,Acu-Link.com,2013-10-14 18:09:00,
2013-10-14 14:24:00,90.3,76.0,29.88,ESE,112,5.8,-999.0,63,-99.99,,,0.00,Acu-Link.com,2013-10-14 18:24:00,
2013-10-14 14:39:00,90.3,76.0,29.88,ESE,112,5.8,-999.0,63,-99.99,,,0.00,Acu-Link.com,2013-10-14 18:39:00,
2013-10-14 14:55:00,90.3,76.0,29.88,ESE,112,5.8,-999.0,63,-99.99,,,0.00,Acu-Link.com,2013-10-14 18:55:00,
2013-10-14 15:10:00,90.3,76.0,29.88,ESE,112,5.8,-999.0,63,-99.99,,,0.00,Acu-Link.com,2013-10-14 19:10:00,
2013-10-14 15:25:00,90.3,76.0,29.88,ESE,112,5.8,-999.0,63,-99.99,,,0.00,Acu-Link.com,2013-10-14 19:25:00,
2013-10-14 15:40:00,90.3,76.0,29.88,ESE,112,5.8,-999.0,63,-99.99,,,0.00,Acu-Link.com,2013-10-14 19:40:00,
2013-10-14 15:55:00,90.3,76.0,29.88,ESE,112,5.8,-999.0,63,-99.99,,,0.00,Acu-Link.com,2013-10-14 19:55:00,
2013-10-14 16:11:00,90.3,76.0,29.88,ESE,112,5.8,-999.0,63,-99.99,,,0.00,Acu-Link.com,2013-10-14 20:11:00,
2013-10-14 16:26:00,90.3,76.0,29.88,ESE,112,5.8,-999.0,63,-99.99,,,0.00,Acu-Link.com,2013-10-14 20:26:00,
2013-10-14 16:41:00,90.3,76.0,29.88,ESE,112,5.8,-999.0,63,-99.99,,,0.00,Acu-Link.com,2013-10-14 20:41:00,
2013-10-14 16:56:00,90.3,76.0,29.88,ESE,112,5.8,-999.0,63,-99.99,,,0.00,Acu-Link.com,2013-10-14 20:56:00,
2013-10-14 17:11:00,90.3,76.0,29.88,ESE,112,5.8,-999.0,63,-99.99,,,0.00,Acu-Link.com,2013-10-14 21:11:00,
2013-10-14 17:27:00,90.3,76.0,29.88,ESE,112,5.8,-999.0,63,-99.99,,,0.00,Acu-Link.com,2013-10-14 21:27:00,
2013-10-14 17:42:00,90.3,76.0,29.88,ESE,112,5.8,-999.0,63,-99.99,,,0.00,Acu-Link.com,2013-10-14 21:42:00,
2013-10-14 17:57:00,90.3,76.0,29.88,ESE,112,5.8,-999.0,63,-99.99,,,0.00,Acu-Link.com,2013-10-14 21:57:00,
2013-10-14 18:12:00,90.3,76.0,29.88,ESE,112,5.8,-999.0,63,-99.99,,,0.00,Acu-Link.com,2013-10-14 22:12:00,
2013-10-14 18:28:00,90.3,76.0,29.88,ESE,112,5.8,-999.0,63,-99.99,,,0.00,Acu-Link.com,2013-10-14 22:28:00,
2013-10-14 18:43:00,90.3,76.0,29.88,ESE,112,5.8,-999.0,63,-99.99,,,0.00,Acu-Link.com,2013-10-14 22:43:00,
2013-10-14 18:58:00,90.3,76.0,29.88,ESE,112,5.8,-999.0,63,-99.99,,,0.00,Acu-Link.com,2013-10-14 22:58:00,
2013-10-14 19:13:00,90.3,76.0,29.88,ESE,112,5.8,-999.0,63,-99.99,,,0.00,Acu-Link.com,2013-10-14 23:13:00,
2013-10-14 19:28:00,90.3,76.0,29.88,ESE,112,5.8,-999.0,63,-99.99,,,0.00,Acu-Link.com,2013-10-14 23:28:00,
2013-10-14 19:44:00,90.3,76.0,29.88,ESE,112,5.8,-999.0,63,-99.99,,,0.00,Acu-Link.com,2013-10-14 23:44:00,
2013-10-14 19:59:00,90.3,76.0,29.88,ESE,112,5.8,-999.0,63,-99.99,,,0.00,Acu-Link.com,2013-10-14 23:59:00,
2013-10-14 20:14:00,90.3,76.0,29.88,ESE,112,5.8,-999.0,63,-99.99,,,0.00,Acu-Link.com,2013-10-15 00:14:00,
2013-10-14 20:29:00,90.3,76.0,29.88,ESE,112,5.8,-999.0,63,-99.99,,,0.00,Acu-Link.com,2013-10-15 00:29:00,
2013-10-14 20:44:00,90.3,76.0,29.88,ESE,112,5.8,-999.0,63,-99.99,,,0.00,Acu-Link.com,2013-10-15 00:44:00,
2013-10-14 21:00:00,90.3,76.0,29.88,ESE,112,5.8,-999.0,63,-99.99,,,0.00,Acu-Link.com,2013-10-15 01:00:00,
2013-10-14 21:15:00,90.3,76.0,29.88,ESE,112,5.8,-999.0,63,-99.99,,,0.00,Acu-Link.com,2013-10-15 01:15:00,
2013-10-14 21:30:00,90.3,76.0,29.88,ESE,112,5.8,-999.0,63,-99.99,,,0.00,Acu-Link.com,2013-10-15 01:30:00,
2013-10-14 21:45:00,90.3,76.0,29.88,ESE,112,5.8,-999.0,63,-99.99,,,0.00,Acu-Link.com,2013-10-15 01:45:00,
2013-10-14 22:01:00,90.3,76.0,29.88,ESE,112,5.8,-999.0,63,-99.99,,,0.00,Acu-Link.com,2013-10-15 02:01:00,
2013-10-14 22:16:00,90.3,76.0,29.88,ESE,112,5.8,-999.0,63,-99.99,,,0.00,Acu-Link.com,2013-10-15 02:16:00,
2013-10-14 22:31:00,90.3,76.0,29.88,ESE,112,5.8,-999.0,63,-99.99,,,0.00,Acu-Link.com,2013-10-15 02:31:00,
2013-10-14 22:46:00,90.3,76.0,29.88,ESE,112,5.8,-999.0,63,-99.99,,,0.00,Acu-Link.com,2013-10-15 02:46:00,
2013-10-14 23:01:00,90.3,76.0,29.88,ESE,112,5.8,-999.0,63,-99.99,,,0.00,Acu-Link.com,2013-10-15 03:01:00,
2013-10-14 23:16:00,90.3,76.0,29.88,ESE,112,5.8,-999.0,63,-99.99,,,0.00,Acu-Link.com,2013-10-15 03:16:00,
2013-10-14 23:31:00,90.3,76.0,29.88,ESE,112,5.8,-999.0,63,-99.99,,,0.00,Acu-Link.com,2013-10-15 03:31:00,
2013-10-14 23:47:00,90.3,76.0,29.88,ESE,112,5.8,-999.0,63,-99.99,,,0.00,Acu-Link.com,2013-10-15 03:47:00,